Location: Alliene Mullendore Elementary School
(32.8240°N, 97.2370°W)
Time: 04:35:54
(UTC+00:00)

Daily predictions for brighter satellites

Satellite Brightness Start Highest point End
(mag) Time Altitude Azimuth Time Altitude Azimuth Time Altitude Azimuth
Sakura Rocket 4.4 00:00:18 10° SW 00:04:09 27° SSE 00:07:25 10° ESE
NOSS 2-3 (D) 3.1 00:00:17 10° SSW 00:04:13 85° ESE 00:07:53 10° NNE
COSMO-SKYMED 1 3.5 00:05:15 10° NE 00:08:41 25° E 00:12:05 10° SSE
Cosmos 2263 Rocket 3.7 00:05:52 10° NNE 00:08:44 14° NE 00:10:29 12° ENE
Thor Agena Rocket 4.0 00:05:30 10° S 00:10:42 69° WSW 00:15:53 10° NNW
Cosmos 1726 Rocket 3.6 00:15:23 10° S 00:19:59 71° E 00:24:37 10° N
Cosmos 2227 Rocket 2.8 00:17:21 10° N 00:22:24 32° ENE 00:27:25 10° SE
SAR-Lupe-4 3.6 00:19:15 10° S 00:22:47 81° WSW 00:26:21 10° NNW
Okean 1-7 Rocket 3.4 00:18:39 10° N 00:23:02 77° E 00:27:22 10° S
IRS-1C 4.2 00:20:08 10° SSE 00:25:27 84° WSW 00:30:47 10° NNW
ATLAS 5 CENTAUR R/B 4.2 00:21:23 10° SSW 00:27:04 84° ESE 00:51:24 10° NE
USA 290 2.5 00:25:08 10° NNW 00:28:22 70° WSW 00:31:35 10° S
Cosmos 1697 Rocket 3.5 00:24:39 10° SW 00:30:03 49° WNW 00:35:29 10° N
CZ-2D R/B 3.5 00:28:08 10° S 00:31:12 54° W 00:34:16 10° NNW
SAR-Lupe-1 4.3 00:28:33 10° S 00:32:07 71° WSW 00:35:43 10° NNW
ATLAS CENTAUR R/B 1.1 00:29:54 10° NW 00:33:01 61° WSW 00:36:01 10° SSE
YAOGAN 1 3.2 00:29:54 10° SE 00:33:39 31° ENE 00:37:25 10° N
SKYMED 2 3.5 00:30:24 10° NNE 00:34:45 90° SE 00:39:05 10° SSW
Cosmos 724 4.2 00:29:41 10° NNW 00:35:41 79° ENE 00:41:30 10° SSE
H-II Stage 2 3.7 00:26:40 10° W 00:38:07 44° SSW 00:41:02 12° SE
Meteor 2-20 4.4 00:32:42 10° S 00:38:51 79° E 00:45:01 10° N
Cosmos 1898 Rocket 3.6 00:35:55 10° S 00:40:52 52° ESE 00:44:15 20° NE
OAO 1 4.5 00:39:12 10° WSW 00:44:43 86° NNW 00:47:33 30° ENE
Cosmos-2242 2.9 00:44:00 10° S 00:48:09 59° E 00:50:38 23° NNE
Cosmos 1953 Rocket 3.4 00:51:46 10° N 00:56:12 73° E 01:00:37 10° SSE
Meteor 2-10 4.3 00:51:00 10° N 00:56:15 49° E 01:01:38 10° SSE
EXPRESS MD2 4.4 00:56:03 10° W 00:58:12 22° NNW 00:58:35 22° NNW
BREEZE-M DEB (TANK) 4.3 00:56:09 10° W 00:59:56 22° NW 01:00:59 19° NNW
Helios 1A Rocket 2.4 00:59:45 47° N 01:00:38 81° WNW 01:04:00 10° SSW
Meteor 2-20 Rocket 4.4 00:54:33 10° S 01:00:55 84° E 01:07:04 10° N
Cosmos 372 Rocket 4.1 00:56:55 10° SSW 01:02:04 74° WNW 01:06:00 17° N
Cosmos 1937 Rocket 3.4 00:57:24 10° S 01:02:30 61° ESE 01:04:15 39° NE
Meteor 1-26 Rocket 4.0 00:57:42 10° S 01:03:09 81° E 01:07:43 15° N
Cosmos 1655 Rocket 4.0 00:58:52 10° N 01:05:07 81° W 01:11:18 10° S
Aureole 1 Rocket 3.6 01:01:40 10° SSW 01:05:27 54° WNW 01:09:04 16° N
Cosmos 1867 3.4 01:00:16 10° NNW 01:05:44 76° ENE 01:11:08 10° SSE
Cosmos 967 Rocket 4.4 01:06:02 10° SSW 01:12:18 72° ESE 01:14:48 39° NE
SL-16 R/B 3.6 01:07:46 10° SSE 01:10:22 22° SE 01:10:22 22° SE
Cosmos 2297 Rocket 4.0 01:10:08 10° NW 01:15:03 31° WSW 01:19:57 10° SSW
OceanSat 1 rocket 4.4 01:12:07 10° SSE 01:16:52 75° ENE 01:21:36 10° N
Cosmos 2058 Rocket 3.8 01:12:57 10° SSW 01:17:17 52° W 01:20:44 16° N
NOAA 6 3.8 01:12:37 10° SSE 01:17:40 68° ENE 01:22:44 10° N
USA 81 4.3 01:19:08 10° N 01:24:22 68° W 01:29:34 10° S
BREEZE-M DEB (TANK) 4.4 01:20:19 10° S 01:24:47 37° ESE 01:24:47 37° ESE
BlueWalker 3 3.9 01:23:24 10° WNW 01:26:26 25° SW 01:28:00 18° SSW
Hubble Space Telescope 2.2 01:26:56 10° WSW 01:29:22 30° SSW 01:29:22 30° SSW
PSLV R/B 4.0 01:28:48 10° S 01:32:42 53° W 01:33:07 50° WNW
Cosmos 1980 Rocket 3.7 01:27:45 10° SW 01:32:49 33° WNW 01:36:57 14° N
Cosmos 2084 Rocket 4.4 01:31:44 10° NW 01:35:44 44° WSW 01:36:16 41° SW
CZ-4C R/B 3.7 01:33:00 10° NW 01:40:44 61° WSW 01:49:41 10° SSE
Cosmos 2369 4.3 01:36:04 10° SW 01:41:38 53° WNW 01:43:36 36° NNW
BREEZE M DEB (TANK) 4.1 01:41:07 10° NW 01:43:48 27° WNW 01:43:48 27° WNW
Cosmos 2263 Rocket 2.5 01:47:30 10° NNW 01:52:20 62° NW 01:52:20 62° NW
COSMOS 2455 3.0 01:50:52 10° SSW 01:56:21 70° WSW 01:56:21 70° WSW
Cosmos 2333 Rocket 4.2 02:00:04 10° S 02:01:21 17° S 02:01:21 17° S
Cosmos 2227 Rocket 4.1 02:01:32 10° NW 02:06:14 27° WSW 02:10:54 10° SSW
Centaur D-1A AC-31 4.3 02:34:27 10° WNW 03:23:52 41° SW 03:24:39 41° SW
CZ-3 R/B 4.0 08:33:23 10° W 09:25:24 75° SSW 09:37:19 10° ESE
CZ-3 Stage 3 3.7 10:07:38 81° S 10:07:38 81° S 10:35:46 10° E
Cosmos 1980 Rocket 3.2 10:32:10 41° ESE 10:32:10 41° ESE 10:36:11 10° SE
Cosmos 2142 Rocket 4.5 10:56:53 46° N 10:58:54 79° E 11:05:03 10° S
COSMOS 2455 3.6 10:59:43 32° N 11:02:08 48° ENE 11:07:54 10° SE
SL-24 R/B - RUBIN 2 4.4 11:05:51 44° SSE 11:05:51 44° SSE 11:08:56 10° SSE
Cosmos 489 Rocket 4.3 11:06:45 54° SW 11:08:14 75° WNW 11:14:31 10° NNE
Nadezhda 4 Rocket 3.9 11:05:30 10° S 11:11:49 88° W 11:18:07 10° N
Cosmos 1898 Rocket 4.1 11:10:27 31° N 11:12:46 55° ENE 11:17:55 10° SSE
H-II Stage 2 4.3 11:15:27 32° S 11:15:27 32° S 11:17:46 10° SE
Cosmos 2098 Rocket 3.8 11:17:16 55° SW 11:17:16 55° SW 11:21:59 10° S
Cosmos 1933 3.8 11:19:08 55° SE 11:19:08 55° SE 11:22:18 10° SSE
IRS-1D 3.7 11:14:41 10° NNE 11:19:43 69° ESE 11:24:49 10° S
OAO 2 Rocket 3.7 11:23:47 42° SW 11:25:16 60° SSE 11:30:20 10° E
Cosmos 372 Rocket 3.7 11:30:24 48° NNW 11:31:48 75° WSW 11:36:50 10° S
Cosmos 1937 Rocket 3.8 11:29:56 18° N 11:33:39 62° ENE 11:38:43 10° SSE
Meteor 2-3 Rocket 3.6 11:32:47 10° SSW 11:38:31 74° W 11:44:13 10° N
Aureole 1 Rocket 4.3 11:35:17 22° NNW 11:40:11 62° WSW 11:47:24 10° S
COSMOS 2406 3.8 11:44:05 34° NW 11:44:05 34° NW 11:48:48 10° N
Cosmos 1606 Rocket 3.4 11:42:55 35° NNW 11:44:39 65° W 11:48:58 10° S
Cosmos 2237 4.2 11:41:41 18° NNW 11:45:59 87° ENE 11:51:40 10° SSE
OAO 3 Copernicus 4.2 11:45:52 40° W 11:47:41 78° N 11:52:42 10° ENE
CZ-4 R/B 3.6 11:43:10 10° N 11:47:46 69° WNW 11:52:19 10° SSW
Centaur D AC-28 4.0 11:46:17 21° W 11:50:19 28° SW 11:54:24 10° SSE
ATLAS 2AS CENTAUR R/B 3.8 11:44:31 10° S 11:51:19 48° ESE 11:57:56 10° NE
Tiangong -2.1 11:51:40 58° NNW 11:52:05 68° NNE 11:55:17 10° ESE
Centaur D-1AR AC-48 4.2 11:35:23 13° WSW 11:52:09 41° SSW 11:57:05 10° ESE
Cosmos 1814 Rocket 4.2 11:47:12 10° S 11:52:21 71° ESE 11:57:35 10° NNE
